Home > Time Zones > World Clock > Weather > U.S.A. > Erie > Past weeks

Flag for U.S.A. Weather past 2 weeks in Erie, Pennsylvania, U.S.A.

Now
78 °F

Passing clouds.


Feels Like: 79 °F
Forecast: 61 / 78 °F
Wind: 23 mph from South

Location: Erie International Airport

Current Time: Sep 20, 2014 at 5:03:10 PM

Latest Report: Sep 20, 2014 at 3:51 PM


Visibility: 10 mi

Pressure: 29.90 "Hg

Humidity: 50%

Dew point: 58 °F

Location of ErieLocation

Historic Weather in Erie — Graph

°F

Erie temperature yesterday

Maximum temperature yesterday: 64 °F (at 1:51 PM)
Minimum temperature yesterday: 47 °F (at 5:51 AM)
Average temperature yesterday: 57 °F

Past Weeks' High & Low Weather Summary

 TemperatureHumidityPressure
High90 °F (Sep 5, 3:51 PM)94% (Sep 11, 6:00 AM)30.34 "Hg (Sep 11, 6:00 AM)
Low46 °F (Sep 14, 6:51 AM)36% (Sep 8, 3:51 PM)29.63 "Hg (Sep 11, 2:51 AM)
Average62 °F68%30.09 "Hg
* Reported Sep 5 3:51 PM — Sep 20 3:51 PM, Erie, Weather by CustomWeather, © 2014

Note: Actual official high and low records may vary slightly from our data, if they occured in-between our weather recording intervals... More about our weather records

Advertising

Erie weather history for previous 24 hours

 ConditionsComfort  
Time TempWeatherWind HumidityBarometerVisibility
3:51 PM
Sep 20
78 °FPassing clouds.23 mph50%29.90 "Hg10 mi
2:51 PM78 °FSunny.16 mph50%29.92 "Hg10 mi
1:51 PM76 °FPassing clouds.20 mph54%29.96 "Hg10 mi
8:51 AM65 °FSunny.17 mph73%30.06 "Hg10 mi
7:51 AM63 °FClear.14 mph75%30.08 "Hg10 mi
6:51 AM63 °FClear.16 mph73%30.07 "Hg10 mi
5:51 AM62 °FClear.14 mph75%30.05 "Hg10 mi
4:51 AM62 °FClear.18 mph75%30.04 "Hg10 mi
3:51 AM62 °FClear.16 mph75%30.05 "Hg10 mi
2:51 AM62 °FClear.16 mph75%30.07 "Hg10 mi
1:51 AM62 °FClear.17 mph73%30.07 "Hg10 mi
12:51 AM62 °FClear.15 mph73%30.07 "Hg10 mi
11:51 PM
Sep 19
62 °FClear.14 mph70%30.09 "Hg10 mi
10:51 PM62 °FClear.10 mph70%30.09 "Hg10 mi
9:51 PM60 °FClear.10 mph75%30.09 "Hg10 mi
8:51 PM58 °FClear.No wind78%30.13 "Hg10 mi
7:51 PM59 °FSunny.3 mph72%30.14 "Hg10 mi
6:51 PM62 °FSunny.7 mph65%30.14 "Hg10 mi
5:51 PM63 °FSunny.9 mph60%30.17 "Hg10 mi
Weather by CustomWeather, © 2014

See weather overviewHow to use our weather pages